Temperature
8 10 10 10 10 10 10 10 10 11 9 9 10 10 11 11 9 9 9 9 8 7 7 7 7 7 8 8 8 8 8 8 8 8 8 8 8 8 7 7 7 7 7 7
9 9 9 9 8 8 9 9 10 10 9 9 9 10 11 10 9 9 9 8 8 7 6 6 6 7 7 7 7 7 7 7 7 7 7 7 7 7 7 7 7 7 7 7
10 9 8 8 8 8 9 9 9 9 8 8 8 10 11 10 9 8 8 8 7 7 6 6 6 6 6 7 7 7 7 6 7 7 6 6 6 6 6 6 6 6 6 6
8 8 7 8 8 8 9 8 8 7 8 9 8 10 11 10 9 9 8 7 7 6 6 6 6 6 6 6 6 6 6 6 6 6 6 6 6 6 6 6 6 6 5 5
8 7 7 7 7 7 8 7 7 7 7 7 8 8 11 9 9 9 8 7 6 6 5 5 5 5 6 6 6 5 5 5 5 5 5 5 5 5 5 5 5 5 5 5
7 6 6 7 6 6 6 6 6 6 7 7 8 8 10 10 9 9 8 6 5 5 4 4 4 5 5 5 5 5 5 5 5 5 5 5 5 4 4 4 4 4 4 4
7 6 6 6 6 6 6 7 8 8 7 9 7 7 9 9 7 7 7 6 5 4 4 4 4 4 4 4 5 5 5 5 5 4 4 4 4 4 4 4 4 4 4 4
7 8 6 6 6 6 6 7 7 8 9 9 6 7 9 7 6 5 5 5 4 4 4 3 3 3 4 4 4 4 4 4 4 4 4 4 3 3 3 3 3 3 3 3
7 7 5 5 5 6 6 6 6 6 5 6 8 8 8 7 6 6 5 5 4 4 3 3 3 3 3 4 4 4 4 4 4 4 4 3 3 3 3 3 3 3 3 3
6 5 5 4 5 4 5 5 5 5 6 8 9 8 9 7 6 6 6 5 4 3 3 3 3 3 3 3 4 4 4 4 3 3 3 3 3 3 3 3 2 2 2 2
4 4 5 4 4 5 4 4 5 5 5 7 8 9 8 7 6 6 5 5 4 3 3 3 3 3 3 3 3 3 3 3 3 3 3 2 2 2 2 2 2 2 2 2
4 4 5 5 4 4 5 5 4 5 5 5 6 8 7 6 5 5 4 4 3 3 3 3 3 2 3 3 3 3 3 3 2 2 2 2 2 2 2 1 2 2 2 1
3 3 5 5 4 3 3 3 3 3 4 5 6 8 6 5 5 4 4 3 3 3 3 2 2 2 2 2 2 2 2 2 2 2 1 1 1 1 1 1 1 1 1 1
3 2 4 6 6 4 3 3 2 3 4 5 5 7 6 6 5 5 4 3 3 2 2 2 2 2 2 2 2 2 2 1 1 1 1 1 1 1 1 1 1 1 1 1
2 2 2 3 3 3 3 3 2 2 4 4 6 5 6 6 6 4 4 3 2 2 2 2 2 2 2 2 2 1 1 1 1 1 0 1 1 0 0 0 0 0 0 -0
1 1 1 2 2 2 2 3 3 3 3 4 4 5 6 5 4 4 3 2 2 2 2 1 1 1 1 1 1 1 1 1 0 0 0 0 -0 -0 -0 -0 -0 -0 -1 -1
0 0 1 3 2 1 3 3 3 3 3 4 4 6 6 5 4 3 3 2 2 2 1 1 1 1 1 1 1 1 0 0 -0 -0 -0 -1 -1 -1 -1 -1 -1 -1 -1 -1
-0 0 1 2 2 3 5 3 3 3 3 3 4 4 4 4 3 2 2 2 2 1 1 1 1 0 0 0 0 0 -0 -0 -0 -1 -1 -1 -1 -1 -1 -1 -1 -1 -1 -2
-0 0 1 1 3 4 5 3 2 2 3 3 3 3 2 2 2 2 2 2 1 1 1 1 1 0 -0 -0 -0 -0 -1 -1 -1 -1 -1 -1 -1 -2 -2 -2 -2 -2 -2 -2
-1 -1 0 1 2 3 5 2 1 2 3 3 2 2 2 1 3 4 2 1 1 1 1 0 -0 -0 -1 -0 -1 -1 -1 -1 -1 -1 -1 -2 -2 -2 -2 -2 -2 -2 -2 -2
-1 -1 0 1 2 3 3 1 1 3 4 2 1 1 0 1 2 1 1 1 0 0 0 -0 -0 -1 -1 -1 -1 -1 -1 -1 -2 -2 -2 -2 -2 -2 -2 -2 -2 -3 -3 -3
0 0 -0 1 1 3 2 1 2 3 2 1 1 0 0 0 0 0 0 -0 -0 -0 -0 -1 -1 -1 -1 -1 -1 -1 -2 -2 -2 -2 -2 -2 -2 -2 -2 -2 -3 -3 -3 -3
0 1 2 2 3 2 1 1 1 1 1 1 0 0 0 -0 -0 -1 -1 -1 -1 -1 -1 -1 -1 -1 -1 -2 -2 -2 -2 -2 -2 -3 -3 -3 -3 -3 -3 -3 -3 -3 -3 -4
-0 -1 -0 -0 1 1 1 1 1 1 1 1 1 0 -0 -1 -1 -1 -1 -1 -1 -1 -1 -2 -2 -2 -2 -2 -2 -2 -2 -3 -3 -3 -3 -3 -3 -3 -3 -3 -3 -3 -4 -4
1 -1 -1 -0 1 0 0 1 1 1 0 0 0 -0 -1 -1 -1 -1 -2 -2 -2 -2 -2 -2 -2 -2 -2 -2 -2 -3 -3 -3 -3 -3 -3 -3 -3 -4 -3 -4 -4 -4 -4 -4
-0 -1 0 2 2 1 1 1 0 0 0 -0 -0 -1 -1 -1 -1 -2 -2 -2 -2 -2 -2 -3 -3 -3 -3 -3 -3 -3 -3 -3 -3 -3 -4 -4 -4 -4 -4 -4 -4 -4 -4 -4
Wind_Speed
2 3 4 5 6 6 5 7 9 8 5 6 11 14 12 9 8 8 8 7 6 6 4 3 2 2 2 2 2 3 3 3 3 2 2 2 2 2 2 2 2 3 3 4
3 5 5 4 4 5 6 8 9 7 4 6 10 15 13 10 9 9 9 8 7 6 5 4 3 2 2 2 2 3 3 3 3 3 2 2 2 2 3 2 3 3 4 4
5 1 2 4 4 5 8 9 8 7 6 6 9 11 9 7 7 7 8 8 7 7 6 5 4 3 2 2 2 2 3 3 3 3 2 2 2 2 3 3 3 4 4 4
3 2 3 4 5 5 7 5 7 7 6 5 4 7 7 6 6 6 6 7 7 6 6 5 5 4 3 2 2 2 3 3 3 3 3 4 3 4 4 3 3 4 4 4
2 2 3 5 4 5 4 2 4 5 6 6 5 6 7 4 7 6 5 6 6 6 5 5 5 4 4 3 2 2 3 3 3 3 4 4 4 4 3 3 4 4 4 4
2 1 2 2 1 3 2 2 2 3 4 6 7 7 7 4 5 4 3 3 4 4 5 4 4 3 3 3 2 2 3 3 3 4 4 4 4 4 4 3 3 3 3 3
2 2 1 2 1 2 2 2 2 3 4 6 2 6 7 3 4 5 5 4 3 3 4 4 4 4 3 3 2 2 3 3 3 4 4 4 4 4 5 4 4 4 3 3
3 4 3 2 3 3 4 3 3 4 4 4 3 7 5 2 3 4 5 4 3 3 3 3 3 4 3 3 3 3 3 3 3 3 4 4 4 4 4 4 4 4 4 4
4 4 0 1 1 3 3 4 1 2 3 5 6 6 6 3 3 3 3 3 3 3 3 3 2 3 3 3 3 3 3 3 3 3 3 3 4 4 4 4 4 4 4 3
3 4 2 1 2 1 1 3 3 3 4 6 6 7 4 3 3 2 2 2 2 2 2 2 1 2 2 3 3 3 3 3 3 3 3 3 3 4 4 4 4 4 4 4
3 3 2 3 5 5 4 4 4 3 3 5 6 5 1 3 3 3 3 2 2 2 2 2 2 2 3 3 3 2 3 3 3 3 3 3 3 3 4 4 4 4 4 4
3 3 4 5 2 2 5 6 6 5 5 5 7 7 1 4 3 3 4 3 3 3 3 3 3 3 3 3 3 3 3 3 3 3 3 3 4 4 4 4 4 4 4 4
4 3 3 3 3 3 4 6 6 4 4 7 8 7 1 2 3 4 4 4 4 3 3 3 3 4 4 4 3 3 3 3 3 3 3 3 4 4 4 5 4 4 5 4
4 5 7 8 5 3 5 7 8 8 7 9 13 13 10 8 8 7 6 6 5 4 4 4 4 4 4 4 4 4 4 4 4 3 4 4 4 4 4 4 4 4 4 4
3 5 7 10 9 8 10 12 12 14 15 13 14 15 15 12 10 9 8 7 6 6 5 5 5 5 4 3 3 3 3 3 4 4 4 4 4 4 4 4 4 4 4 4
2 4 4 8 8 9 13 16 16 17 17 18 19 19 15 11 9 8 8 8 8 7 7 6 5 5 4 4 4 3 3 3 4 4 4 4 4 4 4 4 4 4 4 3
4 3 4 6 5 7 12 13 14 12 13 14 17 15 9 9 9 9 8 8 8 8 7 6 6 5 5 4 4 4 4 4 4 4 4 4 4 4 4 4 4 4 4 3
5 4 3 5 4 10 5 1 7 11 12 14 14 12 10 10 9 8 8 7 7 7 7 6 6 5 4 4 4 3 3 4 3 4 4 4 4 4 4 4 4 4 3 3
7 6 4 4 7 11 7 4 5 7 9 10 12 11 9 7 7 7 5 6 7 7 7 6 5 4 4 4 4 3 3 3 4 4 4 4 4 4 4 4 4 3 3 3
3 5 5 5 7 8 4 1 2 4 7 4 6 7 6 4 6 5 2 4 5 5 4 4 4 4 4 4 3 3 4 4 4 4 4 4 4 4 4 4 3 3 3 3
4 5 8 9 9 9 3 2 3 4 4 1 3 5 5 6 7 5 5 5 5 5 4 4 4 4 4 3 3 3 4 5 4 4 3 3 3 3 3 3 3 3 3 3
7 7 7 7 8 9 4 5 5 5 4 4 5 6 7 8 7 6 6 5 5 4 4 4 3 4 3 3 3 3 4 4 3 3 3 3 3 2 2 2 2 3 3 3
8 8 5 8 8 4 5 6 6 4 6 7 6 7 7 7 7 6 6 6 5 5 4 3 3 4 3 3 3 4 3 2 2 2 2 2 2 2 2 2 2 2 2 2
6 5 6 8 11 10 9 9 8 8 8 8 7 7 7 7 7 6 6 6 5 4 4 3 3 3 3 3 3 3 3 2 2 2 2 1 1 1 1 2 2 2 2 2
7 6 7 10 11 9 8 9 9 8 7 7 7 7 7 7 7 6 6 6 5 4 3 3 4 4 4 3 3 3 2 2 2 2 2 1 1 1 1 1 2 2 3 3
8 9 9 9 7 6 7 6 7 8 8 8 7 7 6 6 6 6 6 5 5 4 3 3 4 4 4 3 3 3 2 2 2 2 2 1 1 1 1 1 1 1 2 2
Wind_Direction
160 189 214 224 226 247 253 254 261 268 279 267 261 267 268 262 249 246 245 242 233 232 230 219 213 198 184 201 201 196 190 195 192 188 198 201 204 207 218 226 232 231 233 232
179 223 239 237 223 230 242 256 268 278 278 268 274 274 267 253 242 246 247 239 233 230 220 213 209 205 199 205 212 212 205 204 201 206 212 220 222 226 225 232 239 240 238 235
214 233 205 201 210 231 244 250 265 276 296 260 279 272 247 233 240 244 242 240 234 226 221 213 206 206 207 213 218 223 221 213 205 204 197 193 204 223 226 228 234 243 242 237
235 241 214 215 227 238 253 258 262 269 273 268 265 279 261 239 243 241 239 237 237 232 224 217 213 214 222 229 222 224 226 214 208 206 204 206 218 229 237 236 236 240 240 240
229 220 226 235 243 233 259 294 263 258 256 268 241 255 267 239 247 246 243 241 240 236 228 223 219 219 226 229 222 218 225 216 213 211 211 217 228 235 236 236 235 238 237 239
256 236 258 256 258 215 225 240 233 237 242 254 241 239 268 238 240 248 253 253 243 236 232 227 223 221 226 229 221 216 221 226 216 213 216 219 229 235 238 243 244 248 246 240
257 207 197 207 204 169 209 230 253 234 229 247 193 234 257 267 256 255 261 273 266 239 229 224 223 224 230 233 234 227 227 231 223 218 222 227 235 238 241 247 248 253 255 256
254 248 195 202 223 215 207 220 232 261 265 274 210 239 258 281 280 268 257 261 261 246 232 228 229 230 233 236 237 235 236 238 237 230 231 233 235 239 245 247 248 249 252 256
235 247 175 240 248 203 187 204 246 259 280 272 252 259 273 240 266 263 243 240 242 240 235 232 234 241 244 243 239 236 233 237 236 231 236 240 242 241 246 249 249 250 253 254
223 257 243 228 179 170 244 168 173 209 252 264 263 259 257 241 242 261 261 252 251 247 243 244 254 258 258 259 257 243 232 233 231 226 230 238 243 243 246 246 245 249 252 253
212 229 237 201 210 205 174 185 208 218 250 260 273 264 237 240 236 249 261 292 293 269 258 267 279 276 266 263 263 253 233 231 231 231 233 237 245 247 248 245 243 243 246 247
197 226 251 240 233 251 221 215 200 224 236 239 265 272 218 240 260 270 278 298 303 294 290 284 279 277 273 264 259 257 244 236 239 239 241 242 248 247 243 245 244 242 242 243
167 195 255 234 203 197 222 221 217 226 239 236 247 262 143 245 277 277 273 283 297 292 285 280 277 276 275 270 260 259 259 249 248 244 242 242 249 248 246 244 244 243 240 241
192 212 234 257 279 214 235 226 214 212 232 244 244 262 273 274 276 279 276 279 284 280 269 269 274 279 280 274 264 261 265 258 251 245 245 245 249 251 246 244 244 243 241 240
200 239 246 264 271 259 252 245 228 228 235 246 257 262 269 273 275 275 272 273 270 266 262 262 269 278 283 281 274 265 268 267 261 254 251 251 254 252 247 242 242 243 241 241
210 246 266 271 263 261 264 254 240 239 243 248 260 269 271 274 273 269 268 266 268 267 268 264 265 272 276 274 272 268 270 273 266 258 256 259 258 252 243 240 238 240 240 240
201 207 250 267 281 280 263 245 229 231 233 237 248 259 274 277 275 272 267 261 262 265 269 264 262 265 268 268 266 265 269 272 263 263 263 264 261 253 248 241 235 235 239 240
199 210 242 271 275 253 263 244 227 236 247 240 251 265 272 276 283 277 264 254 260 264 264 263 262 267 269 268 269 271 270 270 263 262 266 263 258 254 251 244 239 240 240 239
215 207 228 242 259 272 274 241 223 234 265 244 246 260 274 289 288 273 255 255 261 265 267 262 260 264 264 265 268 265 267 267 261 260 262 261 256 250 247 244 246 245 240 241
198 210 224 231 249 258 275 235 227 241 268 235 238 258 269 273 273 280 289 281 277 275 264 258 263 262 260 263 259 254 265 266 262 264 265 264 255 245 243 244 246 246 241 242
192 210 223 236 250 264 274 175 178 234 288 343 257 263 258 255 274 295 294 292 287 281 270 262 259 259 261 260 249 249 258 262 267 269 266 263 258 248 244 244 240 235 236 239
208 206 215 217 235 255 174 164 212 266 307 286 275 270 266 272 286 286 283 282 282 279 271 262 264 270 270 256 245 251 259 269 271 265 260 261 261 254 242 235 233 229 223 222
220 219 224 220 240 286 206 230 250 268 275 278 276 279 271 274 278 279 279 276 274 273 272 270 267 275 276 258 249 255 269 276 265 261 259 261 261 247 230 223 222 217 211 215
235 229 238 256 262 264 258 260 264 265 269 277 276 274 266 268 272 273 275 274 272 271 269 269 263 267 275 269 266 267 275 267 249 247 253 251 248 241 220 216 215 207 207 209
236 201 231 255 271 280 263 252 264 274 278 277 278 274 269 266 265 265 268 271 274 275 274 266 259 263 269 269 273 278 273 254 239 237 237 236 238 236 218 215 216 216 219 219
222 215 221 248 251 251 270 274 270 268 271 272 273 274 272 266 261 261 262 264 269 270 273 268 265 265 265 255 262 267 258 244 229 223 222 224 226 221 211 205 198 203 233 244
Height
1494 1494 1492 1492 1493 1492 1492 1490 1487 1487 1491 1491 1485 1480 1478 1480 1481 1481 1481 1481 1480 1481 1481 1481 1482 1482 1482 1484 1484 1485 1486 1487 1488 1488 1489 1489 1490 1491 1491 1492 1492 1492 1493 1493
1493 1492 1492 1494 1494 1494 1493 1491 1487 1487 1490 1490 1483 1478 1474 1475 1477 1477 1477 1477 1477 1478 1478 1478 1479 1479 1480 1481 1482 1482 1483 1483 1484 1485 1485 1486 1487 1487 1488 1488 1488 1489 1489 1489
1488 1492 1494 1494 1493 1493 1491 1489 1487 1488 1489 1488 1485 1471 1468 1471 1473 1473 1474 1474 1474 1474 1475 1475 1476 1476 1477 1478 1479 1479 1479 1480 1481 1482 1482 1483 1483 1484 1484 1484 1484 1485 1485 1485
1491 1493 1494 1492 1491 1491 1487 1490 1491 1490 1488 1481 1484 1471 1461 1466 1468 1469 1470 1470 1470 1471 1472 1472 1473 1473 1474 1475 1476 1476 1477 1477 1478 1478 1478 1479 1480 1480 1480 1480 1480 1481 1481 1481
1491 1493 1492 1491 1491 1492 1489 1493 1492 1490 1488 1485 1481 1479 1458 1464 1463 1464 1466 1467 1468 1469 1469 1470 1470 1471 1472 1472 1473 1473 1474 1474 1475 1475 1475 1476 1476 1476 1476 1476 1477 1477 1477 1477
1493 1494 1494 1492 1493 1493 1493 1493 1492 1491 1487 1483 1475 1474 1456 1457 1460 1461 1463 1465 1466 1466 1467 1467 1468 1469 1469 1469 1470 1471 1471 1471 1471 1472 1472 1472 1472 1472 1472 1472 1473 1473 1472 1472
1489 1491 1493 1493 1491 1492 1492 1489 1484 1480 1479 1469 1478 1475 1460 1459 1461 1462 1462 1463 1464 1464 1464 1465 1465 1466 1466 1466 1467 1468 1468 1468 1468 1468 1468 1468 1469 1469 1468 1469 1469 1469 1468 1468
1485 1483 1489 1491 1490 1489 1490 1488 1484 1477 1468 1462 1477 1469 1457 1461 1462 1461 1462 1462 1462 1462 1462 1462 1463 1463 1464 1464 1464 1464 1465 1465 1465 1465 1465 1465 1465 1465 1465 1465 1465 1465 1464 1464
1485 1483 1490 1491 1491 1490 1489 1488 1490 1488 1487 1481 1462 1461 1458 1459 1459 1460 1460 1460 1460 1460 1460 1460 1460 1461 1461 1461 1461 1462 1462 1462 1461 1461 1461 1461 1461 1461 1461 1461 1461 1461 1461 1460
1488 1489 1488 1491 1491 1492 1490 1489 1490 1486 1478 1465 1455 1456 1451 1455 1456 1457 1458 1458 1458 1459 1459 1459 1458 1459 1459 1459 1459 1459 1459 1458 1458 1458 1458 1457 1458 1457 1457 1457 1457 1457 1457 1456
1490 1490 1487 1488 1487 1484 1490 1491 1488 1484 1482 1470 1457 1450 1452 1454 1455 1456 1457 1457 1458 1458 1457 1457 1457 1457 1457 1457 1456 1456 1456 1455 1455 1454 1454 1454 1454 1453 1453 1453 1453 1453 1453 1453
1489 1488 1483 1482 1486 1487 1485 1483 1485 1481 1480 1479 1466 1455 1454 1455 1455 1457 1457 1457 1457 1456 1456 1455 1455 1455 1454 1454 1453 1453 1452 1452 1451 1451 1451 1450 1450 1450 1449 1449 1449 1449 1449 1449
1490 1490 1482 1475 1484 1488 1486 1484 1485 1485 1481 1475 1466 1453 1454 1455 1455 1456 1456 1455 1455 1455 1454 1454 1453 1452 1452 1451 1450 1450 1449 1448 1448 1448 1447 1447 1446 1446 1445 1445 1445 1445 1445 1445
1487 1487 1481 1470 1466 1477 1481 1481 1483 1483 1476 1467 1460 1451 1451 1452 1453 1453 1453 1453 1453 1453 1452 1452 1451 1450 1449 1448 1447 1446 1446 1445 1445 1444 1444 1443 1442 1442 1441 1441 1441 1441 1441 1440
1485 1483 1481 1477 1476 1477 1475 1475 1477 1477 1469 1464 1452 1452 1448 1449 1450 1451 1451 1450 1450 1450 1450 1449 1448 1446 1446 1445 1444 1443 1442 1442 1441 1441 1440 1439 1438 1438 1437 1437 1436 1436 1436 1436
1485 1483 1482 1478 1475 1475 1472 1466 1466 1467 1464 1460 1456 1450 1446 1447 1448 1448 1448 1447 1447 1447 1446 1445 1444 1443 1442 1441 1440 1440 1439 1438 1438 1437 1436 1435 1435 1434 1433 1433 1433 1432 1432 1432
1483 1484 1479 1469 1473 1473 1460 1454 1456 1456 1454 1453 1449 1443 1443 1444 1445 1445 1445 1444 1444 1443 1443 1442 1441 1440 1439 1438 1437 1436 1436 1435 1434 1433 1432 1432 1431 1430 1430 1429 1429 1429 1428 1429
1481 1481 1479 1472 1472 1462 1445 1450 1449 1449 1447 1447 1444 1443 1442 1442 1442 1442 1441 1441 1440 1439 1439 1438 1438 1437 1436 1435 1434 1433 1432 1431 1430 1430 1429 1428 1427 1426 1426 1425 1425 1425 1425 1425
1477 1478 1475 1472 1462 1448 1444 1447 1449 1448 1443 1441 1442 1441 1441 1441 1440 1438 1438 1437 1437 1436 1435 1435 1434 1433 1432 1431 1430 1429 1428 1428 1427 1426 1425 1424 1423 1423 1422 1422 1422 1422 1422 1422
1476 1476 1474 1470 1460 1447 1439 1445 1446 1447 1439 1438 1438 1439 1439 1440 1436 1433 1434 1434 1433 1433 1432 1431 1430 1429 1428 1428 1427 1426 1425 1424 1423 1423 1422 1421 1420 1420 1419 1419 1419 1419 1419 1419
1473 1472 1470 1465 1457 1443 1442 1445 1446 1443 1435 1437 1437 1437 1437 1437 1435 1433 1432 1431 1430 1429 1428 1428 1427 1426 1425 1424 1423 1422 1422 1421 1420 1419 1418 1418 1417 1417 1416 1416 1416 1416 1416 1416
1460 1461 1462 1459 1455 1443 1441 1443 1441 1437 1436 1435 1434 1434 1434 1432 1431 1430 1429 1428 1427 1426 1425 1424 1423 1422 1422 1421 1420 1419 1419 1418 1417 1416 1415 1415 1414 1414 1414 1414 1414 1414 1414 1414
1454 1451 1447 1447 1440 1436 1437 1436 1436 1435 1434 1433 1432 1431 1430 1429 1427 1426 1425 1424 1423 1422 1421 1421 1420 1419 1418 1418 1417 1416 1416 1415 1414 1413 1413 1412 1412 1412 1411 1411 1411 1411 1411 1411
1448 1449 1448 1444 1435 1434 1433 1433 1432 1432 1431 1430 1429 1428 1427 1425 1424 1423 1422 1421 1420 1419 1418 1417 1417 1416 1415 1415 1414 1414 1413 1412 1412 1411 1410 1410 1410 1409 1409 1409 1409 1409 1409 1409
1440 1444 1442 1438 1432 1431 1429 1428 1428 1428 1427 1426 1425 1424 1423 1422 1420 1419 1418 1417 1417 1416 1415 1414 1414 1413 1412 1412 1411 1411 1410 1410 1409 1408 1408 1408 1407 1407 1407 1407 1407 1407 1407 1407
1434 1435 1434 1427 1426 1427 1425 1424 1424 1423 1423 1422 1421 1419 1419 1418 1416 1415 1414 1414 1413 1412 1411 1411 1410 1409 1409 1409 1408 1408 1408 1407 1407 1406 1406 1405 1405 1405 1405 1405 1405 1405 1406 1406